Location: Alsip
(41.6689°N, 87.7387°W)
Time: 06:44:30
(UTC+00:00)

Cosmos 1048 Rocket - Pass Details

Date: 14 July 2020
Orbit: 744 x 791 km, 74.0° (Epoch: 04 August)

Event Time Altitude Azimuth Distance (km) Brightness Sun altitude
Exits shadow 04:26:13 61° 155° (SSE) 872 3.9 -23.3°
Maximum altitude 04:26:55 70° 107° (ESE) 821 3.9 -23.4°
Drops below altitude 10° 04:32:08 10° 24° (NNE) 2,307 7.0 -23.7°
Sets 04:34:30 0° 22° (NNE) 3,230 7.9 -23.9°
